Bel Air, Maryland - USA


Today's Data File


5/5/26
Time         Wind Dir   Wind Spd  Wind Gust     Hum In   Humidity    Temp In       Temp  Raw Barom Wind Chill  Press Alt Cloud Base   Dens Alt Temp Out R  DailyRain   24HrRain   RainRate
                    �        mph        mph          %          %         �F         �F         in         �F         ft         ft         ft      �F/hr         in         in      in/hr
12:00am           174          3          7         38         75       72.4       61.1      29.27       61.1        609       1993        909      -1.24       0.00       0.00      0.000
12:01am           183          2          3         38         75       72.4       61.1      29.27       61.1        609       1993        909      -1.21       0.00       0.00      0.000
12:02am           190          6          6         38         75       72.4       61.1      29.27       60.9        609       1993        909      -1.20       0.00       0.00      0.000
12:03am           189          2          6         38         75       72.4       61.0      29.27       61.0        609       1993        902      -1.28       0.00       0.00      0.000
12:04am           177          4          6         38         75       72.4       61.0      29.27       61.0        610       1993        903      -1.26       0.00       0.00      0.000
12:05am           178          2          6         38         75       72.4       60.9      29.27       60.9        609       1992        896      -1.34       0.00       0.00      0.000
12:06am           178          4          4         38         75       72.4       60.9      29.27       60.9        610       1992        897      -1.31       0.00       0.00      0.000
12:07am           238          3          5         38         75       72.4       60.9      29.27       60.9        610       1992        897      -1.29       0.00       0.00      0.000
12:08am           185          1          5         40         75       72.4       60.8      29.27       60.8        610       1991        890      -1.37       0.00       0.00      0.000
12:09am           195          3          5         38         75       72.4       60.9      29.26       60.9        611       1992        898      -1.25       0.00       0.00      0.000
12:10am           213          3          5         38         75       72.4       60.8      29.26       60.8        611       1991        891      -1.33       0.00       0.00      0.000
12:11am           220          3          3         38         76       72.4       60.8      29.26       60.8        611       1901        891      -1.30       0.00       0.00      0.000
12:12am           220          0          3         38         76       72.4       60.7      29.26       60.7        611       1900        885      -1.38       0.00       0.00      0.000
12:13am           181          3          4         38         76       72.4       60.7      29.26       60.7        611       1900        885      -1.36       0.00       0.00      0.000
12:14am           213          2          5         38         76       72.4       60.6      29.26       60.6        611       1899        878      -1.44       0.00       0.00      0.000
12:15am           219          3          5         38         76       72.4       60.7      29.26       60.7        611       1900        885      -1.31       0.00       0.00      0.000
12:16am           219          0          3         38         76       72.4       60.6      29.27       60.6        610       1899        877      -1.39       0.00       0.00      0.000
12:17am           206          1          7         38         76       72.4       60.6      29.27       60.6        610       1899        877      -1.37       0.00       0.00      0.000
12:18am           170          1          7         38         77       72.4       60.6      29.27       60.6        610       1810        877      -1.34       0.00       0.00      0.000
12:19am           252          4          7         38         77       72.4       60.6      29.27       60.6        610       1810        877      -1.32       0.00       0.00      0.000
12:20am           252          2          7         38         77       72.4       60.5      29.27       60.5        609       1809        869      -1.40       0.00       0.00      0.000
12:21am           189          2          3         38         77       72.4       60.5      29.27       60.5        609       1809        868      -1.38       0.00       0.00      0.000
12:22am           206          0          3         38         77       72.4       60.5      29.27       60.5        608       1809        867      -1.35       0.00       0.00      0.000
12:23am           206          2          3         38         77       72.4       60.5      29.27       60.5        608       1809        867      -1.33       0.00       0.00      0.000
12:24am           206          0          3         38         77       72.4       60.5      29.27       60.5        606       1809        865      -1.31       0.00       0.00      0.000
12:25am           235          0          3         38         77       72.4       60.5      29.27       60.5        607       1809        866      -1.29       0.00       0.00      0.000
12:26am           235          1          1         38         77       72.4       60.5      29.27       60.5        606       1809        865      -1.27       0.00       0.00      0.000
12:27am           235          0          1         38         77       72.4       60.5      29.27       60.5        604       1809        863      -1.25       0.00       0.00      0.000
12:28am           235          1          1         38         77       72.4       60.5      29.27       60.5        603       1809        861      -1.22       0.00       0.00      0.000
12:29am           235          0          1         38         77       72.4       60.4      29.27       60.4        602       1808        854      -1.30       0.00       0.00      0.000
12:30am           235          1          1         38         77       72.4       60.4      29.28       60.4        600       1808        852      -1.28       0.00       0.00      0.000
12:31am           235          0          1         38         77       72.4       60.3      29.28       60.3        600       1808        845      -1.36       0.00       0.00      0.000
12:32am           235          0          1         38         77       72.4       60.3      29.27       60.3        602       1808        847      -1.34       0.00       0.00      0.000
12:33am           183          4          4         38         77       72.4       60.2      29.27       60.2        604       1807        843      -1.41       0.00       0.00      0.000
12:34am           182          2          4         38         78       72.4       60.2      29.27       60.2        604       1719        843      -1.39       0.00       0.00      0.000
12:35am           144          1          4         38         78       72.4       60.2      29.27       60.2        603       1719        842      -1.37       0.00       0.00      0.000
12:36am           144          0          2         38         78       72.4       60.1      29.27       60.1        602       1718        834      -1.45       0.00       0.00      0.000
12:37am           145          2          2         38         78       72.4       60.1      29.27       60.1        603       1718        835      -1.42       0.00       0.00      0.000
12:38am           145          3          3         38         78       72.4       60.1      29.27       60.1        604       1718        837      -1.40       0.00       0.00      0.000
12:39am           161          3          3         38         78       72.6       60.0      29.27       60.0        605       1718        831      -1.47       0.00       0.00      0.000
12:40am           161          2          3         38         78       72.6       60.0      29.27       60.0        604       1718        830      -1.45       0.00       0.00      0.000
12:41am           183          1          3         38         79       72.6       60.0      29.27       60.0        604       1631        830      -1.43       0.00       0.00      0.000
12:42am           239          3          3         38         79       72.6       60.0      29.27       60.0        604       1631        830      -1.40       0.00       0.00      0.000
12:43am           237          1          3         38         79       72.6       60.0      29.27       60.0        602       1631        828      -1.37       0.00       0.00      0.000
12:44am           237          2          3         38         79       72.6       60.0      29.27       60.0        604       1631        830      -1.35       0.00       0.00      0.000
12:45am           171          1          4         38         79       72.6       60.0      29.27       60.0        603       1631        829      -1.33       0.00       0.00      0.000
12:46am           171          1          2         38         79       72.6       60.0      29.27       60.0        602       1631        828      -1.31       0.00       0.00      0.000
12:47am           171          1          2         38         79       72.6       60.0      29.27       60.0        602       1631        828      -1.29       0.00       0.00      0.000
12:48am           193          3          3         38         79       72.6       60.0      29.27       60.0        602       1631        828      -1.27       0.00       0.00      0.000
12:49am           193          1          3         38         79       72.6       60.0      29.27       60.0        603       1631        829      -1.25       0.00       0.00      0.000
12:50am           208          2          7         38         79       72.6       60.0      29.27       60.0        604       1631        830      -1.23       0.00       0.00      0.000
12:51am           208          1          2         38         79       72.6       60.0      29.27       60.0        602       1631        828      -1.21       0.00       0.00      0.000
12:52am           208          2          3         38         79       72.6       60.0      29.27       60.0        602       1631        828      -1.19       0.00       0.00      0.000
12:53am           208          0          3         38         79       72.6       60.0      29.27       60.0        602       1631        828      -1.17       0.00       0.00      0.000
12:54am           208          2          3         38         79       72.6       60.0      29.27       60.0        603       1631        829      -1.15       0.00       0.00      0.000
12:55am           208          1          3         38         79       72.6       59.9      29.27       59.9        603       1630        822      -1.23       0.00       0.00      0.000
12:56am           208          1          3         38         79       72.6       59.9      29.27       59.9        602       1630        821      -1.21       0.00       0.00      0.000
12:57am           208          0          3         38         79       72.6       59.8      29.28       59.8        600       1629        812      -1.29       0.00       0.00      0.000
12:58am           208          1          3         38         80       72.6       59.8      29.28       59.8        600       1543        812      -1.27       0.00       0.00      0.000
12:59am           208          0          3         38         80       72.6       59.8      29.28       59.8        599       1543        811      -1.25       0.00       0.00      0.000
1:00am            208          1          3         38         80       72.6       59.8      29.28       59.8        599       1543        811      -1.22       0.00       0.00      0.000
1:01am            208          0          3         38         80       72.6       59.8      29.28       59.8        599       1543        811      -1.21       0.00       0.00      0.000
1:02am            222          2          3         38         80       72.6       59.8      29.28       59.8        599       1543        811      -1.19       0.00       0.00      0.000
1:03am            225          1          3         38         80       72.6       59.8      29.28       59.8        599       1543        811      -1.17       0.00       0.00      0.000
1:04am            225          2          3         38         80       72.6       59.7      29.28       59.7        600       1543        806      -1.24       0.00       0.00      0.000
1:05am            225          1          3         38         80       72.6       59.7      29.28       59.7        601       1543        807      -1.23       0.00       0.00      0.000
1:06am            225          1          2         38         80       72.6       59.7      29.28       59.7        600       1543        806      -1.21       0.00       0.00      0.000
1:07am            225          0          2         38         80       72.6       59.7      29.28       59.7        599       1543        805      -1.18       0.00       0.00      0.000
1:08am            225          1          2         38         80       72.6       59.7      29.28       59.7        599       1543        805      -1.17       0.00       0.00      0.000
1:09am            225          0          2         38         80       72.6       59.6      29.28       59.6        599       1542        798      -1.25       0.00       0.00      0.000
1:10am            225          1          2         39         80       72.8       59.6      29.28       59.6        598       1542        797      -1.23       0.00       0.00      0.000
1:11am            225          1          1         38         80       72.8       59.6      29.28       59.6        598       1542        797      -1.20       0.00       0.00      0.000
1:12am            225          1          2         38         81       72.8       59.6      29.28       59.6        597       1457        796      -1.19       0.00       0.00      0.000
1:13am            225          2          2         38         81       72.8       59.6      29.28       59.6        597       1457        796      -1.17       0.00       0.00      0.000
1:14am            225          2          2         38         81       72.8       59.5      29.28       59.5        597       1457        789      -1.25       0.00       0.00      0.000
1:15am            225          2          2         38         81       72.8       59.5      29.28       59.5        597       1457        789      -1.23       0.00       0.00      0.000
1:16am            225          1          2         38         81       72.8       59.5      29.28       59.5        599       1457        792      -1.21       0.00       0.00      0.000
1:17am            225          1          2         39         81       72.8       59.5      29.28       59.5        599       1457        792      -1.19       0.00       0.00      0.000
1:18am            225          1          2         38         81       72.8       59.5      29.28       59.5        600       1457        793      -1.17       0.00       0.00      0.000
1:19am            225          1          2         39         81       72.8       59.5      29.28       59.5        599       1457        792      -1.15       0.00       0.00      0.000
1:20am            225          1          2         38         81       72.8       59.4      29.28       59.4        600       1456        786      -1.23       0.00       0.00      0.000
1:21am            225          2          2         39         81       72.8       59.4      29.28       59.4        599       1456        785      -1.21       0.00       0.00      0.000
1:22am            225          0          2         38         81       72.8       59.4      29.28       59.4        599       1456        785      -1.19       0.00       0.00      0.000
1:23am            225          3          3         38         81       72.8       59.3      29.28       59.3        599       1455        778      -1.27       0.00       0.00      0.000
1:24am            225          1          3         38         81       72.8       59.3      29.28       59.3        599       1455        778      -1.25       0.00       0.00      0.000
1:25am            225          2          3         38         81       72.8       59.4      29.28       59.4        599       1456        785      -1.13       0.00       0.00      0.000
1:26am            225          1          2         38         81       72.8       59.4      29.28       59.4        599       1456        785      -1.11       0.00       0.00      0.000
1:27am            225          1          2         39         81       72.8       59.4      29.28       59.4        599       1456        785      -1.09       0.00       0.00      0.000
1:28am            224          2          4         38         81       72.8       59.4      29.28       59.4        600       1456        786      -1.07       0.00       0.00      0.000
1:29am            224          2          4         38         81       72.8       59.3      29.28       59.3        599       1455        778      -1.15       0.00       0.00      0.000
1:30am            224          2          4         38         81       72.8       59.4      29.28       59.4        599       1456        785      -1.04       0.00       0.00      0.000
1:31am            224          1          3         39         81       72.8       59.4      29.28       59.4        599       1456        785      -1.02       0.00       0.00      0.000
1:32am            224          1          3         38         81       72.8       59.3      29.28       59.3        599       1455        778      -1.10       0.00       0.00      0.000
1:33am            224          1          3         39         81       72.8       59.3      29.28       59.3        600       1455        780      -1.08       0.00       0.00      0.000
1:34am            224          1          3         39         81       72.8       59.4      29.28       59.4        600       1456        786      -0.97       0.00       0.00      0.000
1:35am            224          2          3         39         81       72.8       59.3      29.28       59.3        601       1455        781      -1.05       0.00       0.00      0.000
1:36am            242          2          4         38         81       73.0       59.3      29.28       59.3        601       1455        781      -1.03       0.00       0.00      0.000
1:37am            244          1          4         39         81       73.0       59.3      29.28       59.3        601       1455        781      -1.01       0.00       0.00      0.000
1:38am            237          2          4         38         81       73.0       59.4      29.28       59.4        601       1456        787      -0.90       0.00       0.00      0.000
1:39am            213          2          4         39         81       73.0       59.3      29.28       59.3        601       1455        781      -0.98       0.00       0.00      0.000
1:40am            213          2          4         38         81       73.0       59.3      29.28       59.3        600       1455        780      -0.97       0.00       0.00      0.000
1:41am            212          1          3         39         81       73.0       59.3      29.28       59.3        601       1455        781      -0.95       0.00       0.00      0.000
1:42am            213          1          3         39         81       73.0       59.4      29.28       59.4        601       1456        787      -0.84       0.00       0.00      0.000
1:43am            213          2          3         39         81       73.0       59.4      29.28       59.4        601       1456        787      -0.82       0.00       0.00      0.000
1:44am            213          2          3         39         81       73.0       59.4      29.28       59.4        600       1456        786      -0.81       0.00       0.00      0.000
1:45am            213          0          3         39         81       73.0       59.4      29.28       59.4        599       1456        785      -0.79       0.00       0.00      0.000
1:46am            213          2          2         39         81       73.0       59.4      29.28       59.4        600       1456        786      -0.78       0.00       0.00      0.000
1:47am            213          0          2         38         81       73.0       59.3      29.27       59.3        602       1455        782      -0.87       0.00       0.00      0.000
1:48am            213          0          2         39         81       73.0       59.3      29.28       59.3        599       1455        778      -0.85       0.00       0.00      0.000
1:49am            213          0          2         39         81       73.0       59.3      29.28       59.3        601       1455        781      -0.84       0.00       0.00      0.000
1:50am            213          0          2         38         81       73.0       59.3      29.27       59.3        602       1455        782      -0.82       0.00       0.00      0.000
1:51am            213          0          0         38         81       73.0       59.3      29.27       59.3        604       1455        784      -0.81       0.00       0.00      0.000
1:52am            213          0          0         38         81       73.0       59.3      29.28       59.3        600       1455        780      -0.80       0.00       0.00      0.000
1:53am            213          0          0         39         81       73.0       59.3      29.28       59.3        600       1455        780      -0.78       0.00       0.00      0.000
1:54am            213          0          0         39         81       73.0       59.3      29.27       59.3        602       1455        782      -0.77       0.00       0.00      0.000
1:55am            213          0          0         39         81       73.0       59.3      29.27       59.3        604       1455        784      -0.76       0.00       0.00      0.000
1:56am            213          0          0         38         81       73.0       59.2      29.27       59.2        606       1455        780      -0.84       0.00       0.00      0.000
1:57am            213          0          0         38         81       73.0       59.2      29.27       59.2        606       1455        780      -0.83       0.00       0.00      0.000
1:58am            213          0          0         38         81       73.0       59.2      29.27       59.2        608       1455        782      -0.82       0.00       0.00      0.000
1:59am            213          0          0         39         81       73.0       59.2      29.27       59.2        609       1455        783      -0.80       0.00       0.00      0.000
2:00am            213          0          0         39         81       73.0       59.2      29.27       59.2        609       1455        783      -0.79       0.00       0.00      0.000
2:01am            213          0          0         40         81       73.1       59.2      29.27       59.2        609       1455        784      -0.77       0.00       0.00      0.000
2:02am            213          0          0         39         81       73.0       59.2      29.27       59.2        609       1455        784      -0.76       0.00       0.00      0.000
2:03am            213          0          0         39         81       73.0       59.2      29.27       59.2        609       1455        784      -0.75       0.00       0.00      0.000
2:04am            213          0          0         39         81       73.1       59.2      29.27       59.2        608       1455        782      -0.73       0.00       0.00      0.000
2:05am            213          0          0         39         81       73.1       59.1      29.27       59.1        608       1454        776      -0.82       0.00       0.00      0.000
2:06am            213          0          0         38         81       73.1       59.1      29.27       59.1        608       1454        776      -0.81       0.00       0.00      0.000
2:07am            213          0          0         38         81       73.1       59.2      29.27       59.2        609       1455        783      -0.69       0.00       0.00      0.000
2:08am            213          0          0         38         81       73.1       59.1      29.27       59.1        608       1454        776      -0.78       0.00       0.00      0.000
2:09am            213          0          0         39         81       73.1       59.1      29.27       59.1        608       1454        776      -0.77       0.00       0.00      0.000
2:10am            213          0          0         39         81       73.1       59.1      29.27       59.1        608       1454        776      -0.76       0.00       0.00      0.000
2:11am            213          0          0         38         81       73.1       59.1      29.27       59.1        607       1454        775      -0.74       0.00       0.00      0.000
2:12am            213          0          0         39         82       73.1       59.1      29.27       59.1        607       1370        775      -0.73       0.00       0.00      0.000
2:13am            213          0          0         39         82       73.1       59.1      29.27       59.1        607       1370        775      -0.72       0.00       0.00      0.000
2:14am            213          0          0         39         82       73.1       59.0      29.27       59.0        603       1370        763      -0.80       0.00       0.00      0.000
2:15am            213          0          0         39         82       73.1       58.9      29.28       58.9        599       1369        752      -0.89       0.00       0.00      0.000
2:16am            211          1          1         39         82       73.1       58.9      29.28       58.9        600       1369        753      -0.87       0.00       0.00      0.000
2:17am            211          2          2         38         82       73.1       58.8      29.28       58.8        600       1369        747      -0.96       0.00       0.00      0.000
2:18am            211          0          3         39         82       73.1       58.7      29.28       58.7        601       1368        741      -1.04       0.00       0.00      0.000
2:19am            211          2          3         39         82       73.1       58.7      29.28       58.7        601       1368        741      -1.02       0.00       0.00      0.000
2:20am            212          1          3         39         82       73.1       58.7      29.28       58.7        601       1368        741      -1.01       0.00       0.00      0.000
2:21am            212          2          3         38         82       73.1       58.6      29.27       58.6        603       1368        737      -1.09       0.00       0.00      0.000
2:22am            200          2          4         39         82       73.1       58.6      29.27       58.6        604       1368        738      -1.07       0.00       0.00      0.000
2:23am            200          3          4         39         82       73.1       58.6      29.27       58.6        603       1368        737      -1.05       0.00       0.00      0.000
2:24am            209          3          4         39         82       73.1       58.7      29.27       58.7        605       1368        746      -0.94       0.00       0.00      0.000
2:25am            208          2          4         39         82       73.1       58.6      29.27       58.6        606       1368        741      -1.02       0.00       0.00      0.000
2:26am            189          1          4         38         81       73.1       58.7      29.27       58.7        607       1452        748      -0.90       0.00       0.00      0.000
2:27am            189          1          4         39         81       73.1       58.7      29.27       58.7        608       1452        749      -0.89       0.00       0.00      0.000
2:28am            189          3          4         39         81       73.1       58.7      29.27       58.7        608       1452        749      -0.87       0.00       0.00      0.000
2:29am            191          3          4         39         81       73.1       58.8      29.27       58.8        609       1452        757      -0.76       0.00       0.00      0.000
2:30am            191          2          4         39         81       73.1       58.7      29.27       58.7        609       1452        751      -0.85       0.00       0.00      0.000
2:31am            202          2          4         39         81       73.1       58.8      29.27       58.8        609       1452        757      -0.73       0.00       0.00      0.000
2:32am            195          1          4         39         80       73.1       58.9      29.27       58.9        610       1537        766      -0.62       0.00       0.00      0.000
2:33am            195          0          4         39         80       73.3       58.9      29.26       58.9        611       1537        767      -0.61       0.00       0.00      0.000
2:34am            195          0          4         39         80       73.3       58.9      29.27       58.9        610       1537        766      -0.60       0.00       0.00      0.000
2:35am            197          1          4         39         80       73.3       58.9      29.27       58.9        610       1537        766      -0.59       0.00       0.00      0.000
2:36am            197          0          1         39         80       73.3       58.9      29.26       58.9        611       1537        767      -0.58       0.00       0.00      0.000
2:37am            197          2          2         39         80       73.3       59.0      29.26       59.0        611       1538        774      -0.47       0.00       0.00      0.000
2:38am            197          0          2         39         80       73.3       59.0      29.26       59.0        611       1538        774      -0.46       0.00       0.00      0.000
2:39am            197          1          2         39         80       73.3       58.9      29.26       58.9        611       1537        767      -0.56       0.00       0.00      0.000
2:40am            197          0          2         38         80       73.3       59.0      29.26       59.0        611       1538        774      -0.45       0.00       0.00      0.000
2:41am            197          2          2         39         80       73.3       58.9      29.26       58.9        611       1537        767      -0.54       0.00       0.00      0.000
2:42am            175          2          4         39         80       73.3       58.9      29.26       58.9        611       1537        767      -0.53       0.00       0.00      0.000
2:43am            175          3          4         39         80       73.3       59.0      29.26       59.0        611       1538        774      -0.42       0.00       0.00      0.000
2:44am            175          1          4         39         80       73.3       58.9      29.27       58.9        610       1537        766      -0.52       0.00       0.00      0.000
2:45am            232          1          4         38         80       73.3       59.0      29.26       59.0        611       1538        774      -0.41       0.00       0.00      0.000
2:46am            187          5          5         39         80       73.3       58.9      29.27       58.7        610       1537        766      -0.50       0.00       0.00      0.000
2:47am            187          3          5         39         80       73.3       59.1      29.27       59.1        609       1539        777      -0.29       0.00       0.00      0.000
2:48am            196          3          5         39         80       73.3       59.0      29.27       59.0        610       1538        773      -0.39       0.00       0.00      0.000
2:49am            170          2          5         39         80       73.3       59.0      29.27       59.0        608       1538        769      -0.38       0.00       0.00      0.000
2:50am            171          1          5         39         80       73.3       59.0      29.27       59.0        607       1538        768      -0.38       0.00       0.00      0.000
2:51am            167          3          6         39         81       73.3       59.1      29.27       59.1        608       1454        776      -0.27       0.00       0.00      0.000
2:52am            167          1          6         39         81       73.3       59.0      29.27       59.0        607       1454        768      -0.37       0.00       0.00      0.000
2:53am            172          4          6         39         81       73.3       59.0      29.27       59.0        608       1454        769      -0.36       0.00       0.00      0.000
2:54am            156          0          6         39         81       73.3       59.1      29.27       59.1        608       1454        776      -0.26       0.00       0.00      0.000
2:55am            212          2          6         39         81       73.3       59.1      29.27       59.1        609       1454        777      -0.25       0.00       0.00      0.000
2:56am            274          4          7         38         81       73.3       59.1      29.27       59.1        610       1454        779      -0.25       0.00       0.00      0.000
2:57am            269          0          7         39         81       73.3       59.1      29.27       59.1        609       1454        777      -0.24       0.00       0.00      0.000
2:58am            269          1          7         39         81       73.3       59.1      29.27       59.1        609       1454        777      -0.24       0.00       0.00      0.000
2:59am            264          0          7         39         81       73.3       59.1      29.27       59.1        609       1454        777      -0.24       0.00       0.00      0.000
3:00am            263          2          7         39         81       73.3       59.1      29.27       59.1        608       1454        776      -0.23       0.00       0.00      0.000
3:01am            202          3          3         39         81       73.5       59.1      29.27       59.1        609       1454        777      -0.23       0.00       0.00      0.000
3:02am            202          2          3         39         82       73.3       59.1      29.27       59.1        608       1370        776      -0.22       0.00       0.00      0.000
3:03am            202          1          3         39         82       73.5       59.0      29.27       59.0        608       1370        769      -0.32       0.00       0.00      0.000
3:04am            206          2          3         39         82       73.5       58.9      29.27       58.9        606       1369        760      -0.41       0.00       0.00      0.000
3:05am            195          1          4         39         82       73.5       58.9      29.27       58.9        607       1369        761      -0.41       0.00       0.00      0.000
3:06am            195          0          1         39         82       73.5       58.9      29.27       58.9        607       1369        761      -0.40       0.00       0.00      0.000
3:07am            236          1          3         39         82       73.5       58.9      29.27       58.9        608       1369        763      -0.39       0.00       0.00      0.000
3:08am            236          0          3         39         82       73.5       58.9      29.27       58.9        609       1369        764      -0.39       0.00       0.00      0.000
3:09am            236          2          4         39         82       73.5       58.9      29.27       58.9        608       1369        763      -0.38       0.00       0.00      0.000
3:10am            236          1          4         39         82       73.5       58.8      29.27       58.8        608       1369        756      -0.47       0.00       0.00      0.000
3:11am            236          0          2         39         82       73.5       58.8      29.27       58.8        607       1369        755      -0.46       0.00       0.00      0.000
3:12am            168          3          3         39         82       73.5       58.8      29.27       58.8        608       1369        756      -0.46       0.00       0.00      0.000
3:13am            163          3          4         39         83       73.5       58.8      29.27       58.8        607       1286        755      -0.45       0.00       0.00      0.000
3:14am            226          3          5         39         83       73.5       58.8      29.27       58.8        608       1286        756      -0.44       0.00       0.00      0.000
3:15am            219          2          5         39         83       73.5       58.7      29.27       58.7        607       1285        748      -0.53       0.00       0.00      0.000
3:16am            219          0          3         39         83       73.5       58.6      29.27       58.6        605       1285        739      -0.62       0.00       0.00      0.000
3:17am            219          2          3         39         83       73.5       58.6      29.27       58.6        606       1285        741      -0.61       0.00       0.00      0.000
3:18am            219          1          3         39         83       73.5       58.6      29.27       58.6        606       1285        741      -0.60       0.00       0.00      0.000
3:19am            219          2          3         39         83       73.5       58.5      29.27       58.5        604       1284        732      -0.69       0.00       0.00      0.000
3:20am            219          1          3         39         83       73.5       58.5      29.27       58.5        606       1284        734      -0.68       0.00       0.00      0.000
3:21am            219          1          2         39         83       73.5       58.4      29.27       58.4        606       1284        727      -0.77       0.00       0.00      0.000
3:22am            219          2          3         39         83       73.5       58.4      29.27       58.4        607       1284        729      -0.75       0.00       0.00      0.000
3:23am            218          2          3         39         84       73.5       58.3      29.27       58.3        606       1202        721      -0.84       0.00       0.00      0.000
3:24am            218          1          3         39         84       73.5       58.3      29.27       58.3        604       1202        719      -0.82       0.00       0.00      0.000
3:25am            203          1          6         39         84       73.5       58.3      29.27       58.3        605       1202        720      -0.81       0.00       0.00      0.000
3:26am            203          1          2         39         84       73.5       58.3      29.27       58.3        604       1202        719      -0.80       0.00       0.00      0.000
3:27am            173          0          3         39         84       73.5       58.3      29.27       58.3        603       1202        718      -0.78       0.00       0.00      0.000
3:28am            173          1          3         39         84       73.5       58.3      29.27       58.3        602       1202        716      -0.77       0.00       0.00      0.000
3:29am            173          2          3         39         84       73.5       58.2      29.27       58.2        603       1201        711      -0.86       0.00       0.00      0.000
3:30am            173          1          3         39         84       73.5       58.2      29.27       58.2        602       1201        710      -0.84       0.00       0.00      0.000
3:31am            173          2          2         39         84       73.5       58.1      29.27       58.1        603       1201        704      -0.93       0.00       0.00      0.000
3:32am            191          3          3         39         84       73.5       58.1      29.27       58.1        604       1201        706      -0.91       0.00       0.00      0.000
3:33am            191          2          3         39         84       73.5       58.1      29.27       58.1        603       1201        704      -0.90       0.00       0.00      0.000
3:34am            191          1          3         39         84       73.5       58.1      29.28       58.1        601       1201        702      -0.88       0.00       0.00      0.000
3:35am            191          1          3         39         84       73.5       58.0      29.28       58.0        601       1200        696      -0.97       0.00       0.00      0.000
3:36am            191          2          2         39         84       73.5       58.0      29.28       58.0        601       1200        696      -0.95       0.00       0.00      0.000
3:37am            191          0          2         39         84       73.5       58.0      29.28       58.0        601       1200        696      -0.94       0.00       0.00      0.000
3:38am            191          0          2         39         85       73.6       57.9      29.28       57.9        601       1119        689      -1.02       0.00       0.00      0.000
3:39am            191          1          2         39         85       73.6       57.9      29.28       57.9        601       1119        689      -1.00       0.00       0.00      0.000
3:40am            191          0          2         39         85       73.6       57.8      29.28       57.8        600       1118        681      -1.09       0.00       0.00      0.000
3:41am            191          0          1         39         85       73.6       57.8      29.28       57.8        599       1118        680      -1.07       0.00       0.00      0.000
3:42am            191          1          1         39         85       73.6       57.8      29.28       57.8        600       1118        681      -1.05       0.00       0.00      0.000
3:43am            191          1          2         39         85       73.6       57.8      29.28       57.8        599       1118        680      -1.03       0.00       0.00      0.000
3:44am            191          1          2         39         85       73.6       57.8      29.28       57.8        599       1118        680      -1.02       0.00       0.00      0.000
3:45am            191          1          2         39         85       73.6       57.7      29.28       57.7        599       1118        674      -1.10       0.00       0.00      0.000
3:46am            191          2          2         39         85       73.6       57.7      29.28       57.7        598       1118        672      -1.08       0.00       0.00      0.000
3:47am            191          1          2         39         85       73.6       57.6      29.28       57.6        599       1117        667      -1.16       0.00       0.00      0.000
3:48am            191          1          3         39         85       73.6       57.6      29.28       57.6        598       1117        666      -1.14       0.00       0.00      0.000
3:49am            191          0          3         39         85       73.6       57.6      29.28       57.6        598       1117        666      -1.12       0.00       0.00      0.000
3:50am            191          1          3         39         85       73.6       57.6      29.28       57.6        598       1117        666      -1.10       0.00       0.00      0.000
3:51am            191          1          1         39         85       73.6       57.5      29.28       57.5        598       1117        659      -1.19       0.00       0.00      0.000
3:52am            191          1          2         39         85       73.6       57.5      29.28       57.5        598       1117        659      -1.17       0.00       0.00      0.000
3:53am            191          1          2         39         85       73.6       57.5      29.28       57.5        598       1117        659      -1.15       0.00       0.00      0.000
3:54am            191          0          2         39         85       73.6       57.4      29.28       57.4        599       1116        654      -1.23       0.00       0.00      0.000
3:55am            191          0          2         39         85       73.6       57.4      29.28       57.4        601       1116        656      -1.21       0.00       0.00      0.000
3:56am            191          0          2         39         85       73.6       57.4      29.28       57.4        601       1116        656      -1.19       0.00       0.00      0.000
3:57am            191          2          3         39         85       73.6       57.3      29.28       57.3        601       1116        650      -1.27       0.00       0.00      0.000
3:58am            191          1          3         39         86       73.6       57.3      29.28       57.3        599       1036        647      -1.25       0.00       0.00      0.000
3:59am            191          1          3         39         86       73.6       57.2      29.28       57.2        600       1036        642      -1.33       0.00       0.00      0.000
4:00am            189          1          4         39         86       73.6       57.2      29.28       57.2        600       1036        642      -1.31       0.00       0.00      0.000
4:01am            189          0          2         39         86       73.6       57.2      29.28       57.2        599       1036        641      -1.28       0.00       0.00      0.000
4:02am            189          0          2         39         86       73.6       57.2      29.28       57.2        600       1036        642      -1.26       0.00       0.00      0.000
4:03am            189          2          2         39         86       73.6       57.2      29.28       57.2        599       1036        641      -1.24       0.00       0.00      0.000
4:04am            189          0          2         39         86       73.6       57.2      29.28       57.2        599       1036        641      -1.22       0.00       0.00      0.000
4:05am            189          3          3         39         86       73.6       57.1      29.28       57.1        599       1035        634      -1.30       0.00       0.00      0.000
4:06am            189          1          4         39         86       73.6       57.1      29.28       57.1        598       1035        633      -1.28       0.00       0.00      0.000
4:07am            161          4          5         39         86       73.6       57.1      29.28       57.1        598       1035        633      -1.26       0.00       0.00      0.000
4:08am            202          3          5         39         86       73.6       57.1      29.28       57.1        598       1035        633      -1.24       0.00       0.00      0.000
4:09am            202          3          5         39         86       73.6       57.1      29.28       57.1        598       1035        633      -1.22       0.00       0.00      0.000
4:10am            202          3          5         39         86       73.6       57.1      29.28       57.1        599       1035        634      -1.20       0.00       0.00      0.000
4:11am            206          2          3         39         86       73.6       57.2      29.28       57.2        599       1036        641      -1.08       0.00       0.00      0.000
4:12am            206          2          3         39         86       73.6       57.2      29.28       57.2        599       1036        641      -1.06       0.00       0.00      0.000
4:13am            206          1          3         39         86       73.6       57.2      29.28       57.2        599       1036        641      -1.04       0.00       0.00      0.000
4:14am            168          2          3         39         86       73.6       57.2      29.28       57.2        599       1036        641      -1.02       0.00       0.00      0.000
4:15am            168          1          3         39         86       73.6       57.2      29.28       57.2        599       1036        641      -1.01       0.00       0.00      0.000
4:16am            168          1          2         39         86       73.6       57.2      29.28       57.2        599       1036        641      -0.99       0.00       0.00      0.000
4:17am            168          3          3         39         86       73.6       57.1      29.28       57.1        600       1035        635      -1.07       0.00       0.00      0.000
4:18am            179          2          6         39         86       73.6       57.1      29.28       57.1        601       1035        636      -1.05       0.00       0.00      0.000
4:19am            179          3          6         39         86       73.6       57.1      29.28       57.1        601       1035        636      -1.04       0.00       0.00      0.000
4:20am            179          2          6         39         86       73.6       57.1      29.28       57.1        601       1035        636      -1.02       0.00       0.00      0.000
4:21am            168          4          5         39         86       73.6       57.1      29.28       57.1        601       1035        636      -1.00       0.00       0.00      0.000
4:22am            168          2          5         39         86       73.8       57.1      29.28       57.1        601       1035        636      -0.99       0.00       0.00      0.000
4:23am            204          3          5         39         86       73.6       57.1      29.28       57.1        601       1035        636      -0.97       0.00       0.00      0.000
4:24am            200          0          5         39         86       73.8       57.1      29.28       57.1        601       1035        636      -0.95       0.00       0.00      0.000
4:25am            200          1          5         39         86       73.8       57.1      29.28       57.1        601       1035        636      -0.94       0.00       0.00      0.000
4:26am            200          0          1         39         86       73.8       57.1      29.27       57.1        602       1035        637      -0.92       0.00       0.00      0.000
4:27am            200          1          3         39         86       73.8       57.1      29.27       57.1        602       1035        637      -0.91       0.00       0.00      0.000
4:28am            200          0          3         39         86       73.8       57.1      29.27       57.1        602       1035        637      -0.89       0.00       0.00      0.000
4:29am            226          1          3         39         86       73.8       57.1      29.27       57.1        602       1035        637      -0.88       0.00       0.00      0.000
4:30am            226          0          3         39         86       73.8       57.1      29.27       57.1        604       1035        640      -0.86       0.00       0.00      0.000
4:31am            226          0          0         39         86       73.8       57.1      29.27       57.1        603       1035        639      -0.85       0.00       0.00      0.000
4:32am            226          0          0         39         86       73.8       57.0      29.27       57.0        603       1035        632      -0.93       0.00       0.00      0.000
4:33am            226          0          0         39         86       73.8       57.0      29.27       57.0        603       1035        632      -0.92       0.00       0.00      0.000
4:34am            241          2          3         39         86       73.8       56.9      29.27       56.9        603       1034        625      -1.00       0.00       0.00      0.000
4:35am            241          1          3         39         86       73.8       56.9      29.27       56.9        603       1034        625      -0.99       0.00       0.00      0.000
4:36am            241          2          2         39         86       73.8       56.8      29.27       56.8        604       1034        620      -1.07       0.00       0.00      0.000
4:37am            241          2          2         39         86       73.8       56.8      29.27       56.8        605       1034        621      -1.05       0.00       0.00      0.000
4:38am            241          1          2         39         86       73.8       56.8      29.27       56.8        603       1034        619      -1.03       0.00       0.00      0.000
4:39am            241          1          2         39         86       73.8       56.7      29.27       56.7        604       1034        613      -1.11       0.00       0.00      0.000
4:40am            241          1          2         39         86       73.8       56.7      29.27       56.7        604       1034        613      -1.10       0.00       0.00      0.000
4:41am            241          1          2         39         86       73.8       56.6      29.27       56.6        604       1033        607      -1.18       0.00       0.00      0.000
4:42am            241          3          3         39         86       73.8       56.6      29.27       56.6        605       1033        608      -1.16       0.00       0.00      0.000
4:43am            241          2          3         39         86       73.8       56.5      29.27       56.5        606       1033        603      -1.24       0.00       0.00      0.000
4:44am            241          2          3         39         86       73.8       56.5      29.27       56.5        606       1033        603      -1.22       0.00       0.00      0.000
4:45am            241          2          3         39         87       73.8       56.4      29.27       56.4        606        954        596      -1.30       0.00       0.00      0.000
4:46am            241          2          3         39         87       73.8       56.3      29.27       56.3        607        953        591      -1.37       0.00       0.00      0.000
4:47am            241          1          3         39         87       73.8       56.3      29.27       56.3        605        953        588      -1.35       0.00       0.00      0.000
4:48am            241          2          3         39         87       73.8       56.3      29.27       56.3        606        953        589      -1.33       0.00       0.00      0.000
4:49am            241          1          3         39         87       73.8       56.2      29.27       56.2        605        953        582      -1.40       0.00       0.00      0.000
4:50am            241          1          3         39         87       73.8       56.2      29.27       56.2        605        953        582      -1.38       0.00       0.00      0.000
4:51am            243          1          2         39         87       73.8       56.2      29.27       56.2        605        953        582      -1.36       0.00       0.00      0.000
4:52am            243          0          2         39         87       73.8       56.1      29.27       56.1        605        953        575      -1.43       0.00       0.00      0.000
4:53am            243          1          2         39         87       73.8       56.0      29.27       56.0        604        952        567      -1.51       0.00       0.00      0.000
4:54am            243          0          2         39         87       73.8       56.0      29.27       56.0        604        952        567      -1.48       0.00       0.00      0.000
4:55am            243          1          2         39         87       73.8       55.9      29.27       55.9        604        952        561      -1.56       0.00       0.00      0.000
4:56am            243          0          2         39         87       73.8       55.9      29.27       55.9        605        952        562      -1.54       0.00       0.00      0.000
4:57am            243          2          2         39         87       73.8       55.9      29.27       55.9        606        952        563      -1.51       0.00       0.00      0.000
4:58am            243          2          2         39         87       73.8       55.8      29.27       55.8        607        951        558      -1.59       0.00       0.00      0.000
4:59am            243          2          3         39         88       73.8       55.8      29.27       55.8        607        874        558      -1.56       0.00       0.00      0.000
5:00am            243          2          3         39         88       73.8       55.8      29.27       55.8        607        874        558      -1.53       0.00       0.00      0.000
5:01am            243          2          2         39         88       73.8       55.7      29.27       55.7        606        873        550      -1.61       0.00       0.00      0.000
5:02am            243          2          3         39         88       73.8       55.8      29.27       55.8        607        874        558      -1.48       0.00       0.00      0.000
5:03am            243          2          3         39         88       73.8       55.7      29.27       55.7        608        873        552      -1.56       0.00       0.00      0.000
5:04am            241          2          3         39         88       73.8       55.7      29.27       55.7        607        873        551      -1.53       0.00       0.00      0.000
5:05am            241          2          3         39         88       73.8       55.7      29.27       55.7        607        873        551      -1.51       0.00       0.00      0.000
5:06am            241          2          3         39         88       73.8       55.7      29.27       55.7        606        873        550      -1.48       0.00       0.00      0.000
5:07am            241          2          3         39         88       73.8       55.7      29.27       55.7        605        873        549      -1.46       0.00       0.00      0.000
5:08am            241          3          3         39         88       73.8       55.7      29.27       55.7        604        873        547      -1.43       0.00       0.00      0.000
5:09am            241          2          3         39         88       73.8       55.7      29.27       55.7        604        873        547      -1.41       0.00       0.00      0.000
5:10am            241          2          3         39         88       74.0       55.6      29.27       55.6        603        873        540      -1.49       0.00       0.00      0.000
5:11am            241          2          3         39         88       74.0       55.6      29.27       55.6        603        873        540      -1.46       0.00       0.00      0.000
5:12am            241          2          3         39         88       74.0       55.6      29.27       55.6        603        873        540      -1.44       0.00       0.00      0.000
5:13am            241          1          3         39         88       74.0       55.6      29.27       55.6        603        873        540      -1.42       0.00       0.00      0.000
5:14am            241          2          3         39         88       74.0       55.6      29.27       55.6        604        873        541      -1.39       0.00       0.00      0.000
5:15am            241          3          3         39         88       74.0       55.6      29.27       55.6        604        873        541      -1.37       0.00       0.00      0.000
5:16am            241          3          3         39         87       74.0       55.5      29.27       55.5        603        950        533      -1.44       0.00       0.00      0.000
5:17am            224          2          3         39         87       74.0       55.6      29.27       55.6        603        950        540      -1.32       0.00       0.00      0.000
5:18am            224          0          3         39         87       74.0       55.6      29.27       55.6        603        950        540      -1.30       0.00       0.00      0.000
5:19am            226          3          3         39         87       74.0       55.5      29.27       55.5        603        950        533      -1.38       0.00       0.00      0.000
5:20am            226          0          3         39         87       74.0       55.5      29.27       55.5        604        950        534      -1.35       0.00       0.00      0.000
5:21am            236          1          4         39         87       74.0       55.5      29.27       55.5        602        950        532      -1.33       0.00       0.00      0.000
5:22am            236          1          4         39         87       74.0       55.5      29.27       55.5        602        950        532      -1.31       0.00       0.00      0.000
5:23am            192          1          4         39         87       74.0       55.5      29.28       55.5        601        950        531      -1.29       0.00       0.00      0.000
5:24am            192          2          4         39         87       74.0       55.5      29.27       55.5        602        950        532      -1.27       0.00       0.00      0.000
5:25am            192          1          4         39         87       74.0       55.4      29.27       55.4        602        950        525      -1.34       0.00       0.00      0.000
5:26am            192          1          2         39         87       74.0       55.4      29.27       55.4        602        950        525      -1.32       0.00       0.00      0.000
5:27am            192          1          3         39         87       74.0       55.4      29.28       55.4        601        950        524      -1.30       0.00       0.00      0.000

Data provided from:  Mark Hofmann's Bel Air, MD Weather Station